This is the latest recevied weather packets stored in our database for station/object WC4PEM-13. If no packets are shown the sender has not sent any weather packets the latest 10 day(s).
| Time | Temp. | Humidity | Pressure | Rain* | Wind** | Luminosity | Snow |
|---|---|---|---|---|---|---|---|
| 1777922851 | 27.22° C | 62% | 1015 hPa | 0 mm | - | - | - |
| 1777922551 | 27.22° C | 63% | 1015.2 hPa | 0 mm | - | - | - |
| 1777922251 | 27.22° C | 62% | 1015.3 hPa | 0 mm | - | - | - |
| 1777921951 | 27.22° C | 63% | 1015.3 hPa | 0 mm | - | - | - |
| 1777921651 | 26.67° C | 63% | 1015.4 hPa | 0 mm | - | - | - |
| 1777921351 | 27.22° C | 62% | 1015.6 hPa | 0 mm | - | - | - |
| 1777921051 | 27.22° C | 62% | 1015.6 hPa | 0 mm | - | - | - |
| 1777920751 | 27.78° C | 61% | 1015.8 hPa | 0 mm | - | - | - |
| 1777920451 | 27.22° C | 65% | 1015.6 hPa | 0 mm | - | - | - |
| 1777920151 | 26.67° C | 66% | 1015.6 hPa | 0 mm | - | - | - |
| 1777919851 | 26.67° C | 64% | 1015.7 hPa | 0 mm | - | - | - |
| 1777919551 | 26.67° C | 66% | 1015.7 hPa | 0 mm | - | - | - |
| 1777919251 | 26.67° C | 66% | 1015.8 hPa | 0 mm | - | - | - |
| 1777918951 | 26.11° C | 66% | 1015.9 hPa | 0 mm | - | - | - |
| 1777918651 | 26.67° C | 65% | 1016 hPa | 0 mm | - | - | - |
| 1777918351 | 26.67° C | 65% | 1016 hPa | 0 mm | - | - | - |
| 1777918051 | 26.67° C | 64% | 1016 hPa | 0 mm | - | - | - |
| 1777917751 | 26.67° C | 63% | 1016.1 hPa | 0 mm | - | - | - |
| 1777917451 | 26.67° C | 66% | 1016.2 hPa | 0 mm | - | - | - |
| 1777917151 | 26.67° C | 65% | 1016 hPa | 0 mm | - | - | - |
| 1777916851 | 26.67° C | 63% | 1016.1 hPa | 0 mm | - | - | - |
| 1777916551 | 27.22° C | 63% | 1016.2 hPa | 0 mm | - | - | - |
| 1777916251 | 26.67° C | 66% | 1016.1 hPa | 0 mm | - | - | - |
| 1777915951 | 26.11° C | 68% | 1016.2 hPa | 0 mm | - | - | - |
| 1777915651 | 25.56° C | 66% | 1016.3 hPa | 0 mm | - | - | - |
* Rain latest hour (hover to see other rain measurements)
** Current wind speed in m/s (hover to see current wind gust speed)